Wetbulb
31.94 26.43 23.85 26.04 28.15 27.81 26.07 25.68 24.58 27.23 27.60 25.43 25.84 24.60 28.62 30.40 27.78 27.07 26.29 25.90 25.83 25.57 25.12 26.04 27.19 26.66 26.58 26.94 26.38 27.21 27.83 29.03 29.64 29.52 29.15 31.04 30.36 31.44 34.43 37.11 38.75 38.60 39.51 40.99
27.21 24.08 29.95 32.33 31.29 28.73 26.66 26.04 24.53 26.74 28.13 25.22 23.60 22.83 28.00 26.76 25.76 25.69 25.72 25.58 25.54 22.36 22.41 24.10 24.11 24.60 24.88 24.94 25.22 25.91 27.23 28.43 29.31 30.13 30.24 30.83 30.65 32.88 32.68 34.16 35.80 39.33 42.32 44.87
24.62 28.37 32.84 30.87 27.56 26.93 26.02 24.96 23.69 22.98 25.99 23.78 21.63 19.43 21.50 24.91 24.97 25.59 24.93 24.43 23.19 22.03 21.43 21.14 22.63 22.43 22.68 22.84 23.64 25.72 26.76 27.77 28.65 29.52 30.18 29.81 31.03 31.48 31.71 34.28 35.48 38.59 40.74 42.48
26.43 31.10 29.93 27.10 26.55 27.31 22.00 28.02 26.29 24.72 19.65 15.50 22.90 11.94 21.38 21.87 23.98 25.06 24.95 21.75 20.76 20.51 20.94 21.56 21.78 21.05 20.87 22.95 23.45 24.43 25.47 25.94 27.21 28.69 27.70 27.09 26.41 26.10 29.66 32.81 34.33 36.44 39.27 41.82
24.82 26.54 26.30 24.44 26.89 28.85 22.90 27.82 25.08 23.78 17.74 13.61 18.60 8.70 18.73 20.63 22.69 23.14 24.16 22.76 20.48 19.85 19.85 20.32 19.44 22.46 21.41 23.13 21.56 22.28 23.02 24.54 26.38 27.40 27.27 26.80 25.92 27.52 30.99 31.43 32.03 34.53 39.41 40.26
27.14 30.66 28.04 27.30 28.88 28.76 28.26 26.89 24.91 22.33 17.89 8.76 14.53 12.99 17.88 17.23 17.70 21.17 20.09 21.05 21.29 21.66 22.02 21.18 21.02 22.30 20.71 21.35 21.13 21.61 22.49 24.03 24.97 26.07 25.99 25.82 25.82 26.80 28.01 28.78 29.79 33.87 37.75 37.54
26.97 26.03 27.68 30.20 27.01 28.53 27.54 23.30 14.42 9.68 7.03 11.54 16.84 13.79 19.70 18.81 19.07 17.88 17.82 19.40 17.30 20.12 19.55 18.73 18.44 18.96 19.88 19.58 20.60 21.46 22.47 22.11 23.81 23.88 24.29 24.74 25.90 27.10 26.44 27.28 29.71 31.69 32.95 33.61
19.88 19.56 25.25 29.43 27.57 25.04 24.86 21.63 16.28 4.53 6.75 9.98 18.42 9.62 19.02 17.91 13.33 8.82 12.62 10.72 19.17 20.02 19.55 18.51 18.88 18.09 18.13 20.36 20.57 20.87 21.35 21.75 22.25 22.14 22.90 23.69 24.60 26.40 26.55 27.62 28.86 29.87 32.30 31.83
20.97 21.67 27.29 27.58 27.99 26.53 23.92 21.95 21.05 7.08 5.13 7.02 8.83 15.99 21.73 22.59 16.59 12.79 14.34 19.71 18.96 17.91 17.35 16.08 18.13 16.97 16.98 17.62 19.23 20.05 20.33 20.97 20.57 20.91 22.64 21.85 22.85 23.75 24.20 25.52 27.43 28.85 30.18 30.89
27.25 20.63 26.21 26.45 28.33 26.65 24.63 25.44 14.85 12.63 4.56 1.92 9.43 8.00 12.59 14.44 14.59 15.26 14.02 18.30 17.14 17.11 16.69 16.64 16.14 16.43 17.20 17.67 17.93 18.58 18.72 16.02 15.68 18.92 21.04 23.07 21.02 22.65 22.16 23.22 25.55 26.58 27.13 27.58
26.59 23.33 23.77 26.00 21.50 21.38 21.13 18.26 19.34 16.81 10.05 2.49 1.95 10.95 13.87 13.97 12.20 14.38 17.22 18.82 14.27 13.88 12.46 13.74 14.61 15.08 13.29 12.68 11.89 13.30 13.73 12.04 15.59 17.26 19.35 20.27 19.91 20.82 20.64 23.47 24.87 24.98 25.39 25.46
29.04 25.56 19.92 24.24 24.46 24.51 22.73 14.06 15.76 10.21 6.47 1.17 5.07 12.52 8.85 9.56 4.98 6.38 16.06 19.00 13.96 13.87 11.62 11.92 12.15 9.67 8.61 8.78 9.65 10.22 10.04 11.12 15.44 17.23 18.93 20.30 20.64 17.57 16.17 19.95 24.12 25.16 25.06 25.86
28.60 24.58 18.82 21.59 22.29 22.84 18.55 18.63 15.75 12.12 10.74 7.41 7.21 13.35 7.02 3.04 10.48 15.30 14.07 12.37 13.02 14.68 11.68 7.58 5.27 5.90 6.28 8.71 8.50 8.14 9.16 12.85 15.43 14.04 15.81 18.27 19.56 18.82 17.47 20.00 24.39 24.82 24.83 24.80
31.01 24.67 22.17 20.04 21.62 18.45 10.13 12.58 17.40 16.25 3.84 2.75 9.27 12.71 24.05 20.11 12.96 18.74 12.29 10.81 5.01 5.38 4.99 1.08 4.52 4.66 5.72 7.62 8.25 8.78 9.50 10.93 12.42 13.29 14.76 15.69 18.19 19.53 21.17 22.49 23.99 25.28 25.34 24.49
28.21 20.87 23.12 23.92 25.18 22.21 15.24 15.66 15.28 14.66 9.32 13.79 7.84 7.02 18.37 19.72 17.46 14.12 2.81 4.01 5.50 6.12 4.14 2.36 1.65 1.94 4.48 7.85 8.13 7.84 8.32 8.83 8.41 11.60 15.21 16.96 18.35 18.95 20.20 21.59 22.86 24.04 25.08 25.57
27.01 20.35 22.76 19.97 21.38 13.75 10.58 12.88 14.85 17.48 6.52 9.48 12.44 17.56 22.73 8.62 -3.97 4.46 10.34 2.25 4.18 2.35 3.49 3.31 0.15 1.57 6.83 7.18 7.74 9.75 9.66 10.94 12.22 14.37 14.21 14.54 18.48 20.36 20.61 22.01 22.12 22.67 23.41 24.26
23.87 20.99 20.51 17.26 18.72 16.96 12.28 11.32 8.01 6.45 3.43 15.00 10.68 17.55 -2.66 12.19 7.97 7.61 10.56 1.83 7.44 6.24 3.50 4.04 5.42 5.74 7.77 10.86 18.06 11.41 12.11 16.88 19.37 19.18 20.37 19.98 18.21 19.26 20.25 21.99 22.35 21.53 21.76 22.76
21.66 20.32 21.75 17.24 18.11 8.17 17.13 0.78 5.70 9.14 7.13 11.69 11.65 13.62 7.91 10.30 10.13 9.21 9.63 7.25 9.35 6.16 3.68 5.13 6.66 12.69 12.56 15.60 15.91 20.16 20.40 19.31 18.93 18.75 20.32 21.71 21.54 20.99 20.91 20.12 19.43 19.96 21.27 21.51
25.93 22.32 16.13 14.76 12.74 17.14 18.61 11.97 8.90 10.93 15.59 8.58 13.00 18.19 10.78 1.54 6.33 18.07 3.86 9.69 9.89 8.25 9.02 8.67 8.01 6.63 10.69 11.58 13.67 17.08 15.54 17.00 17.71 15.94 17.79 19.40 21.65 21.58 21.43 20.74 20.66 20.45 20.07 20.37
26.25 24.63 20.61 15.92 11.28 7.65 18.06 16.07 14.04 9.07 13.49 9.58 7.52 9.41 5.58 17.41 14.73 18.56 7.36 1.93 8.11 6.02 5.91 9.20 9.98 9.52 11.80 12.52 14.55 18.34 16.76 17.12 15.34 16.99 18.23 17.77 18.14 18.31 18.51 20.41 20.95 21.45 21.62 21.00
13.18 16.60 15.78 16.57 14.81 15.42 19.78 19.33 20.17 12.58 15.67 9.95 5.43 8.16 10.81 16.13 20.72 13.70 7.25 6.51 6.71 9.68 10.22 7.98 9.64 11.11 12.40 11.49 12.77 15.07 13.81 13.24 15.84 17.25 18.02 17.53 17.60 16.25 17.17 17.05 16.92 17.10 16.45 17.04
14.00 14.39 14.03 15.97 13.41 11.44 20.81 20.98 19.88 22.94 17.83 15.64 7.95 9.62 12.75 16.54 15.29 8.83 8.35 10.22 11.54 11.17 10.66 15.09 12.78 13.31 13.80 15.58 16.66 16.31 15.25 16.47 15.43 14.95 14.31 13.09 11.56 15.94 15.85 9.64 12.28 12.14 11.80 10.78
18.73 20.15 17.42 20.34 22.24 26.05 23.22 24.65 23.49 17.26 23.11 24.41 18.09 18.76 17.99 20.14 17.86 19.72 18.18 16.10 16.38 15.80 15.33 16.13 15.06 15.08 15.12 15.05 15.69 14.83 15.23 13.79 11.90 10.09 8.18 6.81 8.93 14.34 13.99 9.02 10.69 10.39 8.70 9.32
20.61 24.09 22.16 23.71 28.07 28.20 30.82 28.33 24.13 24.67 25.40 27.41 25.83 25.32 24.85 24.24 23.95 22.40 20.46 18.85 17.51 17.59 16.49 16.47 14.85 14.55 15.07 14.26 16.14 16.48 13.71 13.25 9.12 9.11 8.98 8.43 8.11 10.54 9.21 14.39 13.86 11.30 8.94 8.84
23.85 25.27 24.01 24.92 28.23 30.15 29.97 31.25 29.87 30.49 25.18 28.10 28.16 26.30 26.42 25.46 25.16 23.39 22.38 20.42 19.43 18.99 17.71 16.42 16.00 16.25 16.35 14.27 14.18 12.76 13.32 10.68 10.92 9.72 9.96 9.85 10.58 9.26 10.56 12.47 12.24 13.87 13.05 13.27
23.62 23.39 23.95 23.00 27.73 27.40 27.49 29.34 30.53 29.50 29.36 29.79 29.64 28.88 28.36 25.96 25.62 24.88 23.12 21.95 20.26 18.70 17.83 16.26 16.34 16.40 16.58 13.63 14.27 12.00 11.51 10.97 10.31 11.13 10.98 11.11 11.11 9.57 10.22 9.31 10.72 18.87 22.49 23.67
MSLP
1017.41 1017.79 1017.36 1016.80 1016.78 1016.72 1016.85 1017.02 1017.09 1017.09 1017.38 1017.76 1017.12 1016.69 1015.12 1015.12 1015.53 1015.78 1016.01 1016.48 1016.86 1017.44 1018.02 1018.45 1018.76 1018.93 1019.03 1019.09 1019.17 1019.18 1019.14 1018.89 1018.60 1018.22 1017.67 1016.79 1016.37 1015.97 1015.39 1014.83 1014.34 1013.86 1013.40 1012.81
1017.90 1017.42 1016.66 1016.54 1016.59 1016.92 1017.19 1017.40 1017.32 1017.32 1017.94 1018.36 1017.63 1016.73 1014.91 1014.94 1015.08 1015.40 1015.80 1016.31 1016.80 1017.75 1018.37 1018.62 1018.86 1019.09 1019.27 1019.39 1019.39 1019.26 1019.16 1018.98 1018.67 1018.44 1017.99 1017.48 1016.63 1015.72 1015.15 1014.66 1014.14 1013.32 1012.71 1012.01
1017.79 1016.65 1016.27 1016.60 1016.81 1017.18 1017.41 1017.63 1017.83 1018.56 1018.53 1018.49 1018.70 1017.03 1015.64 1015.04 1015.12 1015.33 1015.89 1016.32 1016.98 1017.80 1018.48 1018.81 1019.06 1019.26 1019.41 1019.57 1019.56 1019.42 1019.21 1018.89 1018.58 1018.30 1017.85 1017.38 1016.65 1015.69 1014.84 1014.13 1013.63 1013.15 1012.58 1011.98
1017.64 1016.74 1016.68 1016.89 1017.08 1017.41 1017.92 1017.81 1018.44 1019.32 1019.86 1020.56 1020.00 1019.12 1016.60 1015.63 1015.44 1015.61 1016.12 1016.90 1017.48 1018.06 1018.55 1019.03 1019.30 1019.44 1019.65 1019.68 1019.70 1019.59 1019.32 1018.91 1018.46 1018.15 1017.96 1017.57 1016.91 1015.98 1015.09 1014.21 1013.50 1012.90 1012.21 1011.61
1017.44 1017.21 1017.14 1017.26 1017.16 1017.50 1018.04 1018.64 1019.08 1020.01 1021.19 1021.94 1021.35 1021.44 1016.79 1016.45 1016.05 1015.89 1016.36 1017.20 1017.80 1018.50 1018.92 1019.18 1019.47 1019.65 1019.75 1019.79 1019.75 1019.62 1019.30 1018.90 1018.45 1018.11 1017.84 1017.45 1016.80 1016.10 1015.05 1014.41 1013.70 1012.93 1011.99 1011.37
1017.91 1017.64 1017.65 1017.62 1017.67 1017.99 1018.66 1019.30 1019.82 1020.94 1022.15 1022.74 1021.82 1021.75 1018.09 1017.37 1016.94 1016.68 1017.17 1017.61 1018.22 1018.74 1019.05 1019.33 1019.50 1019.69 1019.75 1019.65 1019.52 1019.37 1019.10 1018.71 1018.38 1017.96 1017.60 1017.25 1016.78 1016.03 1015.16 1014.52 1013.91 1013.00 1012.08 1011.81
1018.03 1018.01 1018.24 1018.41 1018.50 1018.74 1019.28 1020.03 1020.95 1022.32 1023.05 1022.50 1022.00 1021.91 1017.96 1017.11 1017.29 1017.74 1018.17 1018.31 1018.68 1019.19 1019.44 1019.56 1019.78 1019.85 1019.77 1019.62 1019.44 1019.28 1018.90 1018.54 1018.12 1017.73 1017.35 1016.96 1016.51 1015.83 1015.25 1014.68 1013.98 1013.22 1012.47 1012.06
1019.22 1018.97 1019.13 1019.63 1019.79 1019.99 1019.74 1020.26 1020.95 1022.38 1023.38 1023.07 1022.40 1021.06 1017.64 1017.11 1017.66 1018.35 1018.96 1019.14 1019.24 1019.40 1019.61 1019.76 1019.82 1019.93 1019.86 1019.56 1019.41 1019.19 1018.96 1018.48 1017.95 1017.53 1017.01 1016.57 1016.21 1015.64 1015.18 1014.71 1014.13 1013.38 1012.64 1012.19
1020.01 1019.60 1019.72 1019.90 1020.30 1020.62 1020.51 1020.87 1021.32 1022.78 1024.15 1024.18 1022.09 1020.00 1017.32 1017.48 1018.31 1018.87 1019.16 1019.41 1019.31 1019.61 1019.70 1019.83 1020.03 1020.13 1020.05 1019.85 1019.49 1019.27 1018.96 1018.45 1017.99 1017.41 1016.76 1016.35 1015.90 1015.51 1015.02 1014.60 1014.11 1013.41 1012.94 1012.50
1020.50 1020.41 1019.96 1020.36 1020.50 1020.71 1021.00 1021.32 1022.16 1023.06 1024.38 1024.53 1022.49 1021.68 1019.88 1018.77 1019.37 1019.40 1019.65 1019.42 1019.52 1019.77 1020.00 1020.24 1020.39 1020.39 1020.24 1019.98 1019.64 1019.35 1019.05 1018.61 1018.03 1017.33 1016.67 1016.07 1015.77 1015.33 1014.88 1014.49 1013.90 1013.34 1013.05 1012.62
1020.67 1021.06 1020.51 1020.47 1020.77 1021.02 1021.64 1021.87 1022.69 1023.47 1024.47 1025.19 1024.75 1020.47 1018.58 1019.19 1019.75 1019.92 1019.70 1019.57 1019.86 1020.11 1020.49 1020.71 1020.78 1020.75 1020.57 1020.21 1019.83 1019.52 1019.12 1018.60 1017.96 1017.32 1016.71 1016.23 1015.81 1015.32 1014.85 1014.41 1013.91 1013.46 1013.01 1012.76
1020.81 1020.78 1020.40 1020.18 1020.67 1021.39 1021.79 1022.34 1023.05 1024.09 1025.37 1025.92 1025.33 1021.21 1018.44 1019.36 1020.09 1020.10 1019.61 1019.67 1020.01 1020.45 1020.78 1021.13 1021.23 1021.10 1020.90 1020.58 1020.00 1019.63 1019.21 1018.69 1018.00 1017.28 1016.76 1016.21 1015.76 1015.34 1014.94 1014.48 1013.96 1013.58 1013.19 1013.06
1020.88 1020.70 1020.43 1020.15 1021.13 1021.74 1022.18 1022.80 1023.50 1024.04 1024.87 1025.63 1025.02 1020.75 1018.81 1019.85 1019.97 1019.77 1019.90 1020.10 1020.44 1020.85 1021.20 1021.56 1021.67 1021.53 1021.16 1020.75 1020.33 1019.86 1019.20 1018.67 1017.95 1017.38 1016.84 1016.28 1015.85 1015.45 1015.06 1014.52 1014.07 1013.73 1013.40 1013.22
1021.02 1020.63 1020.24 1020.09 1020.46 1021.45 1022.54 1023.03 1023.67 1024.30 1025.23 1024.85 1023.17 1020.53 1018.74 1019.48 1019.93 1019.63 1020.01 1020.47 1020.95 1021.50 1021.81 1021.96 1021.96 1021.69 1021.26 1020.98 1020.49 1019.85 1019.20 1018.63 1018.13 1017.50 1016.91 1016.40 1016.01 1015.50 1015.06 1014.78 1014.48 1014.26 1013.85 1013.61
1021.15 1020.60 1020.17 1019.91 1020.18 1021.08 1021.77 1022.73 1023.64 1024.09 1023.94 1023.97 1022.29 1021.78 1019.54 1019.46 1020.12 1020.33 1020.82 1021.02 1021.35 1021.73 1022.22 1022.10 1022.09 1022.08 1021.33 1020.84 1020.36 1019.64 1019.09 1018.66 1018.20 1017.55 1017.06 1016.72 1016.22 1015.84 1015.47 1015.17 1015.00 1014.81 1014.48 1014.20
1021.34 1020.66 1020.17 1019.65 1019.73 1020.80 1021.97 1022.14 1022.92 1023.49 1023.57 1023.09 1022.48 1021.14 1019.66 1018.99 1019.86 1020.47 1020.87 1021.21 1021.61 1021.59 1021.98 1021.86 1021.92 1021.68 1021.07 1020.47 1020.24 1019.58 1019.13 1018.73 1018.25 1017.76 1017.36 1017.02 1016.35 1016.12 1015.91 1015.73 1015.59 1015.43 1015.21 1014.96
1021.49 1021.14 1020.66 1019.80 1020.03 1020.58 1021.33 1020.79 1022.08 1022.71 1022.66 1022.29 1022.57 1020.31 1020.00 1020.34 1020.65 1020.12 1020.28 1020.65 1020.91 1021.13 1021.40 1021.49 1021.53 1021.08 1020.50 1020.13 1019.70 1019.58 1019.00 1018.62 1018.34 1018.02 1017.56 1017.18 1016.88 1016.60 1016.35 1016.12 1016.00 1015.99 1015.91 1015.65
1021.66 1021.47 1021.15 1020.25 1020.05 1020.10 1019.78 1020.60 1021.30 1021.80 1021.66 1021.52 1021.07 1020.21 1020.52 1020.34 1019.76 1019.33 1019.10 1019.58 1019.94 1020.57 1020.69 1020.96 1021.02 1020.71 1020.23 1019.71 1019.50 1019.30 1019.09 1018.86 1018.63 1018.31 1017.94 1017.65 1017.42 1017.16 1016.91 1016.70 1016.57 1016.51 1016.30 1016.01
1021.94 1021.71 1021.36 1021.06 1020.59 1019.18 1019.07 1020.19 1020.77 1021.39 1020.55 1020.08 1020.83 1020.07 1019.59 1019.99 1019.85 1017.86 1017.70 1018.20 1018.84 1019.26 1019.57 1019.83 1020.24 1020.36 1019.96 1019.71 1019.36 1019.16 1018.96 1018.73 1018.58 1018.47 1018.33 1018.11 1017.92 1017.84 1017.72 1017.56 1017.37 1017.21 1017.01 1016.82
1022.16 1021.92 1021.70 1021.30 1020.91 1019.59 1018.82 1018.86 1019.37 1020.37 1019.96 1019.46 1020.01 1020.20 1019.99 1019.42 1019.50 1018.15 1017.84 1018.24 1018.44 1018.61 1018.86 1019.27 1019.66 1019.95 1019.70 1019.28 1019.25 1019.12 1019.05 1019.06 1019.00 1018.69 1018.41 1018.19 1018.13 1018.28 1018.15 1018.07 1017.90 1017.77 1017.58 1017.43
1022.47 1021.93 1021.53 1021.01 1020.58 1019.09 1018.28 1018.32 1018.75 1019.13 1019.50 1018.35 1019.13 1019.04 1018.89 1018.73 1018.03 1017.17 1017.35 1017.84 1018.00 1018.06 1018.39 1018.81 1019.15 1019.31 1019.03 1019.02 1018.99 1019.07 1019.08 1019.10 1018.88 1018.97 1018.89 1018.69 1018.41 1018.34 1018.16 1018.15 1018.13 1018.10 1018.11 1018.12
1021.61 1021.34 1020.81 1020.48 1019.81 1018.43 1017.39 1017.85 1018.02 1017.64 1017.26 1017.34 1017.97 1017.54 1017.68 1016.75 1016.49 1016.49 1016.56 1017.04 1017.46 1017.61 1017.82 1018.02 1018.50 1018.60 1018.53 1018.73 1018.85 1018.81 1018.71 1018.54 1018.78 1018.99 1019.18 1019.28 1019.21 1019.08 1018.98 1019.12 1018.88 1018.73 1018.74 1018.62
1020.77 1019.97 1019.69 1019.22 1017.25 1016.23 1016.38 1016.61 1016.21 1016.65 1016.70 1016.34 1016.31 1016.07 1016.00 1015.72 1015.28 1015.09 1015.30 1015.71 1016.06 1016.53 1016.78 1017.10 1017.53 1017.86 1018.03 1018.18 1018.34 1018.42 1018.04 1018.43 1018.84 1019.13 1019.30 1019.54 1019.41 1019.27 1019.23 1019.51 1019.47 1019.47 1019.46 1019.45
1019.95 1019.42 1019.13 1018.39 1015.94 1015.98 1015.57 1015.73 1015.87 1015.63 1015.66 1015.15 1015.02 1014.82 1014.76 1014.51 1013.90 1013.92 1014.18 1014.47 1014.87 1015.37 1015.90 1016.24 1016.78 1017.07 1017.11 1017.32 1017.67 1017.66 1017.81 1017.97 1018.48 1018.69 1018.92 1019.25 1019.42 1019.39 1019.43 1019.28 1019.29 1019.41 1019.37 1019.40
1019.87 1019.40 1018.84 1017.98 1016.64 1015.73 1014.76 1015.11 1015.31 1014.87 1014.78 1014.46 1014.06 1013.95 1013.57 1013.43 1013.03 1013.04 1013.02 1013.29 1013.68 1014.04 1014.62 1015.09 1015.47 1015.76 1015.80 1016.30 1016.60 1016.94 1017.32 1017.79 1018.13 1018.34 1018.47 1018.69 1018.87 1019.02 1019.07 1019.01 1018.96 1018.97 1018.79 1018.78
1020.26 1020.15 1019.75 1018.53 1017.86 1017.63 1016.24 1015.74 1015.53 1015.35 1015.07 1014.68 1014.14 1013.22 1012.96 1012.83 1012.60 1012.47 1012.25 1012.19 1012.56 1013.00 1013.35 1013.86 1014.22 1014.66 1014.69 1015.21 1015.63 1016.03 1016.42 1017.11 1017.68 1018.02 1018.08 1018.04 1018.14 1018.17 1018.30 1018.43 1018.32 1018.01 1017.71 1017.61
Wind_Speed
1 1 8 9 7 1 1 3 5 2 2 2 9 12 22 11 8 10 9 8 9 8 7 5 2 1 3 4 5 5 5 6 6 6 6 4 5 7 6 6 10 11 11 12
2 8 5 5 4 4 3 3 5 4 3 2 6 16 23 9 5 4 6 8 8 5 5 4 2 3 3 4 6 6 6 6 5 5 6 5 7 7 7 8 10 11 11 11
6 2 3 3 2 3 4 4 2 5 6 2 8 10 6 3 2 2 2 1 4 8 7 4 5 5 3 5 6 6 6 7 7 8 5 7 8 8 7 7 8 8 11 14
6 3 4 2 4 6 2 2 3 0 5 4 5 9 9 4 7 4 5 4 5 6 3 4 5 4 4 5 5 6 7 9 9 6 7 9 8 9 8 8 9 10 10 6
6 2 3 3 5 4 5 1 3 3 3 5 1 3 11 5 7 4 6 7 7 5 4 6 5 3 4 5 5 5 7 8 8 8 7 7 11 8 8 9 12 12 10 5
7 3 1 3 2 3 5 3 4 5 3 2 2 4 9 4 6 3 1 4 6 6 5 5 3 3 4 5 6 6 8 7 8 7 8 8 12 11 9 10 9 8 5 5
2 2 2 5 1 3 5 3 4 6 3 6 2 1 12 7 5 5 5 6 4 5 5 4 5 5 6 6 6 7 7 10 8 8 8 8 10 10 12 11 8 8 6 3
1 4 3 2 2 3 4 5 5 7 3 5 1 8 9 6 4 5 5 4 6 6 5 4 4 5 6 9 8 8 8 10 9 9 9 7 8 6 7 8 8 7 5 4
2 4 2 3 1 2 1 3 2 8 2 3 3 8 10 3 5 4 7 5 8 6 5 4 5 5 6 6 7 7 9 9 8 9 7 7 5 6 6 7 8 6 4 4
1 5 2 2 1 3 2 2 2 3 0 4 5 7 8 5 4 5 6 7 7 4 4 3 5 5 5 6 7 7 7 7 7 7 6 6 5 5 5 5 5 5 4 3
3 2 1 1 3 3 2 2 2 3 4 6 3 10 9 8 6 6 8 6 6 5 4 3 5 5 5 6 5 6 6 6 7 6 5 5 5 5 4 3 3 3 3 3
2 3 4 4 3 2 2 5 3 6 5 1 4 12 3 5 5 3 11 8 4 3 3 4 5 6 6 6 6 5 6 6 6 5 5 5 4 4 3 3 3 4 3 3
2 3 3 2 2 1 3 3 3 4 3 6 5 10 2 3 6 7 9 6 4 3 3 4 5 6 6 6 6 6 5 5 5 5 4 4 4 3 3 5 5 5 5 5
1 3 5 3 1 2 1 2 3 4 4 4 10 11 15 9 7 9 6 5 5 5 6 4 6 5 6 5 5 5 5 4 4 4 4 4 5 5 5 5 6 5 4 6
2 4 4 8 11 6 6 8 8 10 7 8 5 8 13 13 9 7 5 6 6 6 5 5 5 5 5 5 5 5 4 4 4 4 4 4 4 5 5 7 7 7 7 6
2 4 2 5 3 2 7 9 12 14 3 11 10 25 14 5 4 6 8 5 6 6 7 7 5 5 6 5 5 4 4 4 4 5 4 3 3 4 5 6 7 7 8 7
3 2 3 5 1 6 7 8 7 4 3 8 7 13 4 6 6 6 6 5 7 7 6 7 7 6 5 5 4 3 3 4 4 5 4 4 4 4 5 5 6 7 6 6
1 0 2 5 6 1 5 0 2 5 6 11 10 9 8 8 8 10 9 6 7 7 7 7 6 5 5 3 2 3 3 4 4 4 4 4 4 4 4 4 5 4 4 5
5 1 2 3 3 9 3 3 6 6 6 8 9 13 7 6 6 9 3 8 7 7 7 7 5 4 4 4 4 3 1 1 1 2 3 3 3 3 4 4 4 4 4 4
2 1 1 1 2 3 6 5 4 4 5 4 5 6 3 2 5 6 5 3 6 6 4 7 6 3 5 5 3 4 4 3 3 3 2 1 1 2 2 2 2 2 3 4
1 1 3 3 3 9 5 4 5 7 9 3 5 5 4 4 8 4 4 4 3 4 7 4 5 7 7 4 3 4 3 5 4 3 3 2 2 3 4 3 0 2 2 3
6 5 4 2 2 5 6 1 4 7 5 4 5 5 6 9 7 5 5 6 6 7 6 7 6 8 6 6 5 6 7 5 3 2 2 3 3 3 2 1 2 2 2 3
2 5 4 7 6 4 6 7 6 5 9 8 4 5 7 8 7 6 7 9 9 9 8 7 8 7 6 7 7 7 6 4 4 3 3 3 3 3 2 2 2 1 1 0
3 2 2 3 3 6 7 6 5 4 7 9 8 9 6 11 9 9 7 7 9 9 10 9 9 10 10 8 10 11 4 5 5 6 5 3 3 4 2 2 3 2 3 2
4 3 3 6 9 13 4 9 8 16 6 9 8 7 10 9 13 9 8 8 9 10 10 10 12 12 14 8 11 8 7 6 6 6 5 5 4 4 4 4 4 5 3 4
2 4 4 5 15 6 18 18 18 14 15 15 16 16 10 8 11 7 9 8 8 10 9 11 12 12 13 11 11 9 9 9 8 7 6 7 6 4 5 4 5 11 16 15
Wind_Direction
318 63 223 218 209 36 108 216 242 243 358 297 250 271 275 279 243 259 252 237 227 210 176 156 149 266 281 287 326 323 307 297 311 313 312 297 299 296 286 290 296 293 285 281
30 239 226 226 188 212 212 253 262 277 153 246 308 288 279 278 246 225 265 245 228 157 171 183 257 273 284 297 302 307 301 292 293 291 295 296 299 286 293 288 278 273 291 297
190 216 110 168 168 186 218 205 225 237 312 171 320 290 322 288 267 252 308 297 132 175 194 241 290 292 291 294 305 301 304 303 299 291 295 295 296 293 295 291 297 298 309 302
240 270 191 205 242 162 257 111 108 274 42 265 36 281 300 316 293 235 221 165 168 183 218 278 292 289 277 298 315 313 311 308 303 303 297 293 289 291 294 301 299 302 298 321
263 175 183 187 224 157 215 108 109 99 92 34 17 67 270 6 296 272 234 209 214 220 258 292 292 276 311 326 309 305 302 298 296 289 287 291 293 288 290 295 297 296 291 352
245 317 260 224 60 103 137 83 66 56 85 358 249 131 274 219 215 293 256 222 211 240 292 302 287 304 318 315 314 313 304 295 299 290 293 285 288 292 289 290 295 286 321 318
289 195 74 20 33 42 64 55 324 342 10 223 257 5 250 263 235 221 245 230 237 283 301 283 288 314 314 312 316 309 316 307 299 298 295 289 289 289 288 288 286 293 298 299
30 305 12 72 87 310 176 170 164 215 225 277 19 239 255 217 245 242 266 274 291 276 268 271 285 300 304 315 314 313 309 304 308 303 297 293 283 287 286 288 285 284 290 297
311 272 93 66 118 261 109 217 130 102 56 37 244 282 290 255 308 310 275 259 267 293 275 278 298 299 302 297 301 310 306 305 304 300 299 291 290 287 285 287 282 283 299 302
271 287 55 78 248 106 223 159 56 8 71 301 283 277 244 308 285 307 299 290 293 289 286 300 297 302 299 302 307 309 305 292 289 297 294 306 293 293 298 290 290 308 307 336
149 213 184 207 182 164 181 270 62 112 112 165 290 272 214 214 217 247 273 290 279 281 277 268 289 299 296 297 311 307 307 308 307 308 304 307 305 309 312 309 314 322 328 359
183 237 264 238 143 175 238 201 154 120 267 88 145 271 209 223 236 229 278 296 273 245 261 266 301 297 310 309 312 308 312 318 308 308 312 320 321 321 332 335 2 355 1 8
155 225 288 209 145 170 220 193 141 116 84 206 139 261 303 293 293 266 272 294 292 279 288 316 315 311 306 310 315 320 314 316 313 320 332 350 344 340 348 13 29 16 10 22
171 246 243 259 203 111 208 223 177 132 128 191 233 289 287 298 299 317 304 286 280 281 284 290 295 296 309 312 306 314 326 318 329 339 4 8 6 7 22 27 29 38 29 38
230 257 227 262 266 223 223 220 190 202 195 202 257 227 276 286 284 283 287 288 294 285 287 267 276 305 310 310 309 312 322 334 329 355 4 0 8 17 23 37 38 42 39 44
184 277 288 273 286 188 259 220 217 226 224 277 292 287 285 300 297 286 269 263 271 261 254 256 266 277 281 278 280 303 330 334 343 359 354 4 23 46 41 46 48 50 47 44
209 280 330 268 261 282 295 224 175 193 224 183 194 232 351 301 299 264 281 218 252 252 236 235 238 236 254 266 266 298 315 332 353 353 0 8 16 45 43 53 58 55 52 55
277 101 263 287 333 336 255 259 180 172 239 230 281 270 233 249 264 268 231 211 237 227 230 231 229 240 250 264 274 294 346 5 356 348 5 13 21 40 41 48 50 42 55 60
203 229 281 296 280 295 359 248 142 170 269 199 221 270 264 281 304 293 232 195 204 202 206 207 202 209 253 259 263 272 317 270 317 327 3 11 38 54 43 50 38 26 33 39
216 167 253 11 322 259 246 288 181 121 344 210 186 269 267 334 20 267 322 253 218 216 186 196 198 215 235 241 242 244 253 262 266 266 232 235 76 59 68 83 86 28 21 42
110 209 214 219 275 287 273 282 161 62 249 220 192 229 196 197 212 242 308 243 254 199 197 168 174 210 226 216 199 232 239 244 239 259 257 256 222 170 172 165 29 113 84 75
173 161 198 137 236 288 180 114 97 233 290 238 215 231 237 243 277 260 269 247 215 206 184 192 195 222 228 214 204 235 236 227 201 210 247 265 292 291 322 340 347 23 108 122
272 192 192 203 224 225 199 234 251 193 273 289 241 236 233 267 253 268 243 216 214 209 199 184 198 218 223 213 204 222 237 184 182 198 242 257 284 270 205 176 201 152 118 113
282 157 242 356 322 264 273 246 231 245 238 274 252 265 244 259 264 259 246 227 210 201 206 193 188 212 227 208 216 228 199 183 178 213 227 223 237 256 248 252 204 203 203 217
230 147 241 265 301 309 301 343 318 314 295 299 297 254 257 253 268 249 253 227 215 209 197 189 203 211 223 202 214 208 201 173 204 215 221 225 216 226 242 228 215 225 223 198
328 347 347 296 318 287 298 312 317 340 329 318 312 313 301 246 263 262 255 232 208 207 195 200 210 215 220 204 214 205 188 182 193 216 224 225 219 215 222 229 276 252 253 251